This is the latest recevied weather packets stored in our database for station/object K8RRT. If no packets are shown the sender has not sent any weather packets the latest 10 day(s).
| Time | Temp. | Humidity | Pressure | Rain* | Wind** | Luminosity | Snow |
|---|---|---|---|---|---|---|---|
| 1788482950 | 27.22° C | 90% | 1011.6 hPa | 0 mm | - | 0 W/m² | - |
| 1788482674 | 27.22° C | 90% | 1011.6 hPa | 0 mm | - | 0 W/m² | - |
| 1788482341 | 27.78° C | 89% | 1011.7 hPa | 0 mm | - | 0 W/m² | - |
| 1788482037 | 27.78° C | 89% | 1011.6 hPa | 0 mm | - | 0 W/m² | - |
| 1788481732 | 27.78° C | 88% | 1011.4 hPa | 0 mm | - | 0 W/m² | - |
| 1788481428 | 28.33° C | 87% | 1011.1 hPa | 0 mm | - | 0 W/m² | - |
| 1788481130 | 28.33° C | 85% | 1011.5 hPa | 0 mm | - | 0 W/m² | - |
| 1788480823 | 28.89° C | 83% | 1011.2 hPa | 0 mm | - | 0 W/m² | - |
| 1788480518 | 28.89° C | 83% | 1011.4 hPa | 0 mm | - | 0 W/m² | - |
| 1788480216 | 29.44° C | 81% | 1011.2 hPa | 0 mm | - | 0 W/m² | - |
| 1788479911 | 29.44° C | 79% | 1011.1 hPa | 0 mm | - | 1 W/m² | - |
| 1788479608 | 29.44° C | 80% | 1011.2 hPa | 0 mm | - | 3 W/m² | - |
| 1788479307 | 30° C | 81% | 1011.3 hPa | 0 mm | - | 5 W/m² | - |
| 1788479003 | 30° C | 80% | 1011.3 hPa | 0 mm | - | 9 W/m² | - |
| 1788478700 | 30.56° C | 80% | 1011.5 hPa | 0 mm | - | 13 W/m² | - |
| 1788478395 | 30.56° C | 78% | 1011.1 hPa | 0 mm | - | 16 W/m² | - |
| 1788478094 | 30.56° C | 76% | 1011.1 hPa | 0 mm | - | 20 W/m² | - |
| 1788477790 | 31.67° C | 73% | 1010.9 hPa | 0 mm | - | 27 W/m² | - |
| 1788477489 | 32.22° C | 70% | 1010.9 hPa | 0 mm | - | 31 W/m² | - |
| 1788477184 | 32.78° C | 66% | 1011 hPa | 0 mm | - | 35 W/m² | - |
| 1788476880 | 32.78° C | 67% | 1010.8 hPa | 0 mm | - | 41 W/m² | - |
| 1788476600 | 32.78° C | 66% | 1010.8 hPa | 0 mm | - | 42 W/m² | - |
| 1788476270 | 33.33° C | 66% | 1011 hPa | 0 mm | - | 40 W/m² | - |
| 1788475967 | 33.33° C | 64% | 1010.9 hPa | 0 mm | - | 50 W/m² | - |
| 1788475663 | 33.89° C | 62% | 1010.7 hPa | 0 mm | - | 55 W/m² | - |
* Rain latest hour (hover to see other rain measurements)
** Current wind speed in m/s (hover to see current wind gust speed)